Location: *
(38.9555°S, 57.3572°E)
Time: 01:30:09
(UTC+00:00)

Cosmos 1980 - Pass Details

Date: 15 July 2020
Orbit: 839 x 847 km, 71.0° (Epoch: 06 August)

Event Time Altitude Azimuth Distance (km) Brightness Sun altitude
Rises 13:54:51 0° 198° (SSW) 3,437 6.9 -9.2°
Reaches altitude 10° 13:57:24 10° 193° (SSW) 2,494 6.1 -9.7°
Maximum altitude 14:02:59 51° 117° (ESE) 1,065 3.9 -10.7°
Drops below altitude 10° 14:08:28 10° 41° (NE) 2,461 5.9 -11.7°
Sets 14:10:58 0° 36° (NE) 3,388 6.7 -12.2°
